Portage Glacier, AK

3:38 AM AKDT on March 28, 2017 (GMT -0800)
Portage Glacier

Weather History for PATO - August, 2014

Change the Weather History Date:

Sunday, August 10, 2014

  Actual Average (PAWR) Record (PAWR)
Temperature  
Mean Temperature 54 °F -  
Max Temperature 57 °F 61 °F 75 °F (1957)
Min Temperature 50 °F 50 °F 43 °F (1998)
Degree Days  
Heating Degree Days 12    
Growing Degree Days 4 (Base 50)    
Moisture  
Dew Point 51 °F    
Average Humidity 97    
Maximum Humidity 100    
Minimum Humidity 87    
Precipitation  
Precipitation 0.42 in - - ()
Sea Level Pressure  
Sea Level Pressure 29.70 in    
Wind  
Wind Speed 7 mph (East)    
Max Wind Speed 12 mph    
Max Gust Speed -    
Visibility 5 miles    
Events Rain    
Averages and records for this station are not official NWS values.
T = Trace of Precipitation, MM = Missing Value Source: NWS Daily Summary

Daily Weather History Graph

Daily Weather History Graph

Search for Another Location

Airport or City:

Trip Planner

Search our weather history database for the weather conditions in past years. The results will help you decide how hot, cold, wet, or windy it might be!

Date:

Astronomy

Aug. 10, 2014 Rise Set
Actual Time 5:53 AM AKDT 10:05 PM AKDT
Civil Twilight 4:57 AM AKDT 11:01 PM AKDT
Nautical Twilight 3:21 AM AKDT 12:33 AM AKDT
Astronomical Twilight Sun does not rise Sun does not rise
Moon 9:30 PM AKDT (8/10) 6:15 AM AKDT (8/10)
Length of Visible Light 18h 04m
Length of Day
16h 12m
Full, 100% of the Moon is Illuminated
Aug 10
Full
Aug 17
Last Quarter
Aug 25
New
Sep 2
First Quarter
Sep 8
Full

Hourly Weather History & Observations

Time (AKDT) Temp. Dew Point Humidity Pressure Visibility Wind Dir Wind Speed Gust Speed Precip Events Conditions
12:53 AM 51.1 °F 50.0 °F 96% 29.67 in 9.0 mi East 9.2 mph - 0.03 in Rain Light Rain
1:53 AM 53.1 °F 52.0 °F 96% 29.68 in 6.0 mi SE 9.2 mph - 0.03 in Rain Light Rain
2:53 AM 52.0 °F 52.0 °F 100% 29.67 in 6.0 mi Variable 6.9 mph - 0.03 in Rain Light Rain
3:53 AM 52.0 °F 52.0 °F 100% 29.69 in 3.0 mi East 9.2 mph - 0.06 in Rain Light Rain
4:53 AM 52.0 °F 52.0 °F 100% 29.68 in 4.0 mi Variable 3.5 mph - 0.05 in Rain Light Rain
5:53 AM 51.1 °F 50.0 °F 96% 29.69 in 4.0 mi ENE 10.4 mph - 0.04 in Rain Light Rain
6:09 AM 51.1 °F 50.0 °F 96% 29.69 in 4.0 mi East 9.2 mph - 0.02 in Rain Light Rain
6:42 AM 50.0 °F 50.0 °F 100% 29.69 in 3.0 mi East 10.4 mph - 0.04 in Rain Light Rain
6:53 AM 51.1 °F 51.1 °F 100% 29.70 in 3.0 mi Variable 5.8 mph - 0.05 in Rain Light Rain
7:01 AM 51.1 °F 51.1 °F 100% 29.70 in 3.0 mi East 8.1 mph - 0.00 in Rain Light Rain
7:17 AM 51.1 °F 50.0 °F 96% 29.70 in 2.5 mi East 6.9 mph - 0.00 in Rain Light Rain
7:20 AM 51.1 °F 51.1 °F 100% 29.70 in 2.5 mi East 6.9 mph - 0.01 in Rain Light Rain
7:41 AM 52.0 °F 52.0 °F 100% 29.70 in 3.0 mi East 9.2 mph - 0.02 in Rain Light Rain
7:49 AM 51.8 °F 50.0 °F 94% 29.70 in 2.5 mi East 11.5 mph - 0.02 in Rain Light Rain
7:53 AM 51.1 °F 51.1 °F 100% 29.70 in 2.5 mi ESE 5.8 mph - 0.02 in Rain Light Rain
7:57 AM 51.1 °F 51.1 °F 100% 29.70 in 3.0 mi East 8.1 mph - 0.00 in Rain Light Rain
8:15 AM 52.0 °F 51.1 °F 97% 29.71 in 3.0 mi East 9.2 mph - 0.01 in Rain Light Rain
8:23 AM 52.0 °F 52.0 °F 100% 29.71 in 2.5 mi East 8.1 mph - 0.02 in Rain Light Rain
8:33 AM 50.0 °F 50.0 °F 100% 29.71 in 3.0 mi East 5.8 mph - 0.02 in Rain Light Rain
8:53 AM 52.0 °F 51.1 °F 97% 29.71 in 3.0 mi Variable 3.5 mph - 0.02 in Rain Light Rain
9:18 AM 51.1 °F 50.0 °F 96% 29.71 in 6.0 mi East 4.6 mph - 0.01 in Rain Light Rain
9:46 AM 52.0 °F 52.0 °F 100% 29.71 in 3.0 mi ENE 8.1 mph - 0.01 in Rain Light Rain
9:53 AM 52.0 °F 52.0 °F 100% 29.71 in 3.0 mi East 8.1 mph - 0.01 in Rain Light Rain
10:53 AM 52.0 °F 52.0 °F 100% 29.72 in 3.0 mi East 4.6 mph - 0.01 in   Overcast
12:01 PM 53.1 °F 52.0 °F 96% 29.72 in 5.0 mi East 6.9 mph - 0.00 in Rain Light Rain
12:18 PM 54.0 °F 53.1 °F 97% 29.72 in 2.5 mi Variable 5.8 mph - 0.00 in Rain Light Rain
12:27 PM 52.0 °F 52.0 °F 100% 29.72 in 3.0 mi East 6.9 mph - 0.00 in Rain Light Rain
12:36 PM 51.1 °F 51.1 °F 100% 29.72 in 2.5 mi Variable 5.8 mph - 0.01 in Rain Light Rain
12:46 PM 51.1 °F 50.0 °F 96% 29.72 in 4.0 mi East 8.1 mph - 0.01 in Rain Light Rain
12:53 PM 52.0 °F 51.1 °F 97% 29.73 in 4.0 mi ENE 9.2 mph - 0.01 in Rain Light Rain
1:48 PM 53.6 °F 51.8 °F 94% 29.72 in 7.0 mi East 8.1 mph - 0.00 in Rain Light Rain
1:53 PM 53.1 °F 52.0 °F 96% 29.72 in 4.0 mi Variable 4.6 mph - 0.00 in Rain Light Rain
2:10 PM 54.0 °F 53.1 °F 97% 29.72 in 3.0 mi ESE 5.8 mph - 0.01 in Rain Light Rain
2:23 PM 53.1 °F 53.1 °F 100% 29.72 in 5.0 mi Variable 5.8 mph - 0.01 in Rain Light Rain
2:53 PM 54.0 °F 53.1 °F 97% 29.73 in 4.0 mi East 8.1 mph - 0.01 in Rain Light Rain
3:13 PM 53.1 °F 53.1 °F 100% 29.72 in 2.5 mi East 9.2 mph - 0.00 in Rain Light Rain
3:22 PM 53.1 °F 52.0 °F 96% 29.72 in 6.0 mi ENE 6.9 mph - 0.00 in Rain Light Rain
3:53 PM 51.1 °F 50.0 °F 96% 29.72 in 3.0 mi East 8.1 mph - 0.00 in Rain Light Rain
4:43 PM 52.0 °F 50.0 °F 93% 29.71 in 10.0 mi Variable 3.5 mph - 0.00 in   Overcast
4:53 PM 53.1 °F 51.1 °F 93% 29.71 in 10.0 mi NNE 5.8 mph - 0.00 in   Overcast
5:06 PM 55.0 °F 53.1 °F 93% 29.71 in 10.0 mi Calm Calm - N/A   Overcast
5:53 PM 55.9 °F 54.0 °F 93% 29.70 in 10.0 mi SE 3.5 mph - N/A   Overcast
6:53 PM 55.0 °F 53.1 °F 93% 29.68 in 10.0 mi Calm Calm - N/A   Overcast
8:53 PM 50.0 °F 46.9 °F 89% 29.65 in 10.0 mi East 4.6 mph - N/A   Overcast
9:53 PM 53.1 °F 52.0 °F 96% 29.65 in 10.0 mi East 9.2 mph - 0.00 in Rain Light Rain
10:53 PM 57.0 °F 53.1 °F 87% 29.68 in 10.0 mi East 4.6 mph - 0.00 in Rain Light Rain
11:53 PM 53.1 °F 52.0 °F 96% 29.69 in 6.0 mi East 8.1 mph - 0.05 in Rain Rain